[[{"header":{"parameterUnit":"m.s-1","parameterCategory":1,"la1":30.2991,"la2":30.254,"lo1":-89.0895,"lo2":-89.0444,"dy":0.0017,"dx":0.0017,"nx":28,"ny":28,"refTime":"2025-11-08T09:00:00:Z","depth":0,"parameterNumber":2,"parameterNumberName":"U-component_of_WINDS"},"data":[0,0,0,0,0,0,0,0,0,0,0,0,0,0,0,0,0,0,0,0,0,0,0,0,0,0,0,0,0,0,0,0,0,0,0,0,0,0,0,0,0,0,0,0,0,0,0,0,0,0,0,0,0,0,0,0,0,0,0.8457,0.8458,0,0.8556,0.8558,0.8559,0.8598,0.8598,0.8598,0.8597,0.8703,0.8706,0.8709,0,0,0,0,0,0,0,0,0,0,0,0,0,0.8305,0.8307,0.8457,0.8458,0.8459,0.8556,0.8558,0.8559,0.8598,0.8598,0.8598,0.8597,0.8702,0.8706,0.871,0,0,0,0,0,0,0,0,0,0,0,0,0,0.8384,0.8308,0.8456,0.849,0.8494,0.8556,0.8558,0.8559,0.8598,0.8598,0.8597,0.8597,0.8701,0.8706,0.871,0.8747,0,0,0.8724,0.8726,0,0,0,0,0,0,0,0,0.838,0.839,0.8484,0.8488,0.8493,0.8564,0.8543,0.8622,0.8598,0.8559,0.8597,0.8597,0.8658,0.8666,0.8686,0.8752,0.8756,0.8725,0.8728,0.873,0.8731,0,0,0,0,0,0,0,0.8374,0.8386,0.8496,0.8485,0.8491,0.8502,0.8513,0.8558,0.861,0.8562,0.8565,0.8576,0.866,0.8681,0.8688,0.8758,0.8725,0.8729,0.8732,0.8733,0.8862,0.8862,0,0,0,0,0,0,0.8362,0.8381,0.8493,0.8499,0.8434,0.8505,0.8517,0.8542,0.8609,0.8619,0.8577,0.8578,0.8673,0.8683,0.8692,0.8741,0.873,0.8734,0.8737,0.8861,0.8862,0.8862,0,0,0,0,0,0,0.8359,0.8372,0.8489,0.8441,0.8457,0.8508,0.8535,0.8544,0.8565,0.862,0.863,0.8588,0.8673,0.8686,0.8733,0.8745,0.8736,0.874,0.886,0.8861,0.8862,0.8837,0,0,0,0,0,0,0.8354,0.837,0.8384,0.8441,0.8459,0.8527,0.8536,0.8546,0.8572,0.8575,0.8634,0.8643,0.8674,0.8726,0.8738,0.8751,0.8744,0.8859,0.8861,0.8862,0.8837,0.8837,0.8837,0,0,0,0,0,0.8349,0.8373,0.8384,0.8397,0.8476,0.8527,0.8538,0.8572,0.8573,0.8588,0.8623,0.8641,0.8742,0.8731,0.8744,0.8759,0.8859,0.886,0.8862,0.8837,0.8837,0.8837,0,0,0,0,0,0,0.8317,0.8381,0.8394,0.8437,0.8476,0.8534,0.8553,0.8571,0.8611,0.8612,0.8654,0.8667,0.8711,0.874,0.8727,0.8799,0.8802,0.8806,0.8778,0.8779,0.8779,0.8771,0.8748,0,0,0,0,0,0.8314,0.8349,0.8404,0.8437,0.8456,0.8501,0.8524,0.8547,0.859,0.8607,0.8646,0.8688,0.873,0.8756,0.8797,0.8842,0.8856,0.8859,0.8859,0.8858,0.8861,0.8889,0.8891,0.8867,0.8867,0.8867,0,0,0.831,0.835,0.8369,0.8431,0.8464,0.8501,0.8514,0.8552,0.858,0.8613,0.866,0.869,0.874,0.8787,0.8809,0.8812,0.8872,0.886,0.8859,0.8863,0.8891,0.8893,0.8895,0.8868,0.8868,0.8868,0,0,0.8322,0.8354,0.8386,0.8419,0.8468,0.8499,0.8506,0.8561,0.8582,0.863,0.8656,0.8691,0.8761,0.8796,0.8823,0.8849,0.8867,0.8861,0.8861,0.8887,0.8889,0.8891,0.8902,0.8905,0.8864,0.8864,0.8864,0,0.8311,0.8365,0.84,0.8437,0.8464,0.8495,0.8528,0.8559,0.862,0.8639,0.8641,0.873,0.8766,0.8822,0.8828,0.8849,0.886,0.8855,0.8886,0.8888,0.8891,0.8901,0.8905,0.8863,0.8863,0.8864,0.8864,0,0.835,0.8387,0.8407,0.8464,0.8494,0.8528,0.857,0.8597,0.8618,0.8648,0.8698,0.8742,0.8793,0.8808,0.8829,0.8867,0.8868,0.8877,0.8881,0.8891,0.8902,0.8906,0.8862,0.8862,0.8862,0.8863,0,0,0.8342,0.8419,0.8426,0.8453,0.8511,0.8541,0.8578,0.8627,0.8649,0.8691,0.8724,0.8783,0.8793,0.8824,0.8849,0.8872,0.8892,0.888,0.8882,0.8881,0.8939,0.8931,0.8935,0.8905,0.8906,0.8906,0.8935,0,0.8362,0.8427,0.8461,0.8513,0.8549,0.8581,0.8613,0.8653,0.8683,0.872,0.8754,0.8795,0.8804,0.8823,0.8847,0.8884,0.8904,0.8883,0.8937,0.8939,0.8924,0.894,0.8932,0.8957,0.8939,0.894,0.894,0,0.8393,0.8433,0.8488,0.8543,0.856,0.8588,0.8637,0.867,0.8717,0.8738,0.8772,0.8798,0.884,0.8841,0.8901,0.8885,0.891,0.8932,0.8934,0.8941,0.894,0.8948,0.8965,0.8969,0.8947,0.8946,0.8946,0,0.8382,0.8451,0.8493,0.8515,0.858,0.86,0.8628,0.8675,0.8702,0.8745,0.8764,0.8812,0.8838,0.8876,0.8914,0.8911,0.8971,0.8975,0.8991,0.899,0.9002,0.9,0.9023,0.9017,0.9017,0.9017,0.9017,0,0.84,0.8433,0.849,0.8516,0.8554,0.8594,0.8631,0.8662,0.8704,0.8738,0.8768,0.88,0.8849,0.8887,0.8918,0.8964,0.8975,0.8994,0.9002,0.8992,0.8989,0.9008,0.9008,0.9018,0.9018,0.9017,0.9017,0,0.8395,0.8434,0.8483,0.854,0.8556,0.8582,0.8632,0.866,0.8691,0.8734,0.8747,0.8797,0.8844,0.8887,0.8949,0.897,0.9017,0.9026,0.9,0.9005,0.9018,0.9017,0.9055,0.9062,0.905,0.905,0.905,0,0.8404,0.843,0.8491,0.8515,0.8542,0.8581,0.861,0.8651,0.868,0.8736,0.8757,0.8806,0.8847,0.8921,0.8965,0.9014,0.9025,0.9035,0.9032,0.9021,0.9026,0.9024,0.9027,0.9035,0.9034,0.9034,0.9034,0,0.8416,0.8434,0.8473,0.852,0.8553,0.8592,0.8632,0.865,0.8699,0.873,0.8778,0.881,0.8874,0.8923,0.8976,0.9008,0.903,0.9035,0.9041,0.9031,0.9015,0.9024,0.9,0.9034,0.9034,0.9034,0.9034,0.9034,0.8419,0.8444,0.849,0.8534,0.8568,0.8605,0.8634,0.8669,0.8709,0.8764,0.8786,0.8835,0.8884,0.8958,0.8989,0.9029,0.9034,0.9043,0.9045,0.9047,0.9045,0.9008,0.9039,0.904,0.904,0.904,0.904,0,0.8433,0.8464,0.8504,0.8558,0.8593,0.861,0.8655,0.8683,0.8725,0.8768,0.8808,0.8864,0.8912,0.896,0.9011,0.9034,0.9046,0.9046,0.9045,0.9052,0.9038,0.9028,0.9036,0.9036,0.9036,0.9036,0.9036,0.9036,0.8444,0.8487,0.8511,0.8573,0.8605,0.8652,0.8677,0.8712,0.8747,0.8807,0.8847,0.8877,0.8923,0.8978,0.9023,0.9037,0.9054,0.9052,0.9068,0.9053,0.9053,0.9053,0.9043,0.9055,0.9055,0.9079,0.9079,0.9079]},{"header":{"parameterUnit":"m.s-1","parameterCategory":1,"la1":30.2991,"la2":30.254,"lo1":-89.0895,"lo2":-89.0444,"dy":0.0017,"dx":0.0017,"nx":28,"ny":28,"refTime":"2025-11-08T09:00:00:Z","depth":0,"parameterNumber":3,"parameterNumberName":"V-component_of_WINDS"},"data":[0,0,0,0,0,0,0,0,0,0,0,0,0,0,0,0,0,0,0,0,0,0,0,0,0,0,0,0,0,0,0,0,0,0,0,0,0,0,0,0,0,0,0,0,0,0,0,0,0,0,0,0,0,0,0,0,0,0,-0.1507,-0.1508,0,-0.1664,-0.1665,-0.1667,-0.1724,-0.1724,-0.1723,-0.1723,-0.1884,-0.1889,-0.1894,0,0,0,0,0,0,0,0,0,0,0,0,0,-0.1258,-0.1262,-0.1507,-0.1509,-0.1511,-0.1663,-0.1666,-0.1668,-0.1724,-0.1724,-0.1723,-0.1722,-0.1883,-0.1888,-0.1894,0,0,0,0,0,0,0,0,0,0,0,0,0,-0.1386,-0.1264,-0.1506,-0.1557,-0.1563,-0.1663,-0.1666,-0.1668,-0.1724,-0.1724,-0.1723,-0.1722,-0.1881,-0.1888,-0.1895,-0.1956,0,0,-0.1917,-0.192,0,0,0,0,0,0,0,0,-0.1378,-0.1395,-0.1548,-0.1554,-0.1561,-0.1674,-0.1637,-0.1765,-0.1725,-0.1663,-0.1723,-0.1722,-0.1815,-0.1827,-0.1859,-0.1963,-0.197,-0.1918,-0.1922,-0.1925,-0.1927,0,0,0,0,0,0,0,-0.1369,-0.1388,-0.1569,-0.155,-0.1558,-0.1573,-0.159,-0.1662,-0.1742,-0.1669,-0.1673,-0.1691,-0.1818,-0.1852,-0.1863,-0.1972,-0.1917,-0.1924,-0.1928,-0.1931,-0.2136,-0.2137,0,0,0,0,0,0,-0.1352,-0.1381,-0.1564,-0.1574,-0.1466,-0.1578,-0.1597,-0.1638,-0.1741,-0.1756,-0.1691,-0.1693,-0.184,-0.1854,-0.1869,-0.1947,-0.1925,-0.1932,-0.1936,-0.2135,-0.2137,-0.2138,0,0,0,0,0,0,-0.1346,-0.1368,-0.1558,-0.1478,-0.1504,-0.1583,-0.1629,-0.1642,-0.1675,-0.1758,-0.1773,-0.171,-0.184,-0.1859,-0.1934,-0.1954,-0.1935,-0.1941,-0.2134,-0.2136,-0.2137,-0.2104,0,0,0,0,0,0,-0.1339,-0.1365,-0.1388,-0.1478,-0.1508,-0.1619,-0.163,-0.1645,-0.1687,-0.1691,-0.178,-0.1794,-0.184,-0.1923,-0.1941,-0.1963,-0.1947,-0.2132,-0.2135,-0.2137,-0.2104,-0.2105,-0.2105,0,0,0,0,0,-0.133,-0.1373,-0.1389,-0.1411,-0.1538,-0.162,-0.1637,-0.1689,-0.1689,-0.1713,-0.1767,-0.1791,-0.1949,-0.193,-0.1951,-0.1976,-0.2131,-0.2134,-0.2137,-0.2104,-0.2105,-0.2105,0,0,0,0,0,0,-0.1283,-0.1385,-0.1405,-0.1478,-0.154,-0.163,-0.1662,-0.1688,-0.1751,-0.1752,-0.1814,-0.1834,-0.1905,-0.1948,-0.1925,-0.2041,-0.2042,-0.2049,-0.201,-0.2011,-0.2012,-0.2,-0.1953,0,0,0,0,0,-0.1281,-0.1339,-0.1425,-0.1482,-0.1512,-0.1581,-0.1619,-0.1654,-0.1721,-0.1747,-0.1806,-0.187,-0.1935,-0.1975,-0.2039,-0.2111,-0.2132,-0.2139,-0.2139,-0.2139,-0.2144,-0.2187,-0.2191,-0.2146,-0.2146,-0.2146,0,0,-0.1278,-0.1341,-0.1373,-0.1474,-0.1526,-0.1585,-0.1603,-0.1664,-0.1709,-0.1756,-0.1831,-0.1877,-0.1953,-0.2027,-0.2063,-0.2065,-0.2162,-0.2143,-0.2142,-0.2147,-0.219,-0.2194,-0.2198,-0.2148,-0.2148,-0.2147,0,0,-0.1302,-0.1355,-0.1408,-0.146,-0.1539,-0.1586,-0.1598,-0.1685,-0.1717,-0.1793,-0.1831,-0.1885,-0.1994,-0.2047,-0.2088,-0.2134,-0.2159,-0.2153,-0.2156,-0.2197,-0.22,-0.2204,-0.2221,-0.2226,-0.2158,-0.2158,-0.2158,0,-0.1288,-0.1377,-0.1432,-0.1492,-0.1536,-0.1582,-0.1637,-0.1685,-0.1781,-0.181,-0.1812,-0.195,-0.2005,-0.2092,-0.2104,-0.2135,-0.2153,-0.2143,-0.2195,-0.2199,-0.2203,-0.222,-0.2226,-0.2157,-0.2157,-0.2157,-0.2157,0,-0.1356,-0.1418,-0.1452,-0.1543,-0.1591,-0.1647,-0.1712,-0.1754,-0.1785,-0.1832,-0.1909,-0.1977,-0.2055,-0.2079,-0.2109,-0.2171,-0.217,-0.2183,-0.2185,-0.2205,-0.2222,-0.2229,-0.2155,-0.2155,-0.2156,-0.2156,0,0,-0.1353,-0.1476,-0.1487,-0.153,-0.1621,-0.167,-0.173,-0.1807,-0.1842,-0.1907,-0.1959,-0.2051,-0.2063,-0.211,-0.2148,-0.2183,-0.2217,-0.2192,-0.2195,-0.2194,-0.2289,-0.2279,-0.2285,-0.2234,-0.2236,-0.2237,-0.2283,0,-0.1389,-0.1498,-0.155,-0.1636,-0.1694,-0.174,-0.1793,-0.1855,-0.19,-0.1957,-0.2008,-0.2072,-0.2084,-0.2112,-0.215,-0.2204,-0.2236,-0.2202,-0.2284,-0.2286,-0.2263,-0.2294,-0.2283,-0.2323,-0.229,-0.2291,-0.2292,0,-0.1445,-0.151,-0.1602,-0.1688,-0.1714,-0.176,-0.1835,-0.1889,-0.1961,-0.1992,-0.2044,-0.2082,-0.2147,-0.2145,-0.2237,-0.2212,-0.2249,-0.2282,-0.2285,-0.2294,-0.229,-0.2304,-0.2338,-0.2343,-0.2303,-0.2302,-0.2301,0,-0.1434,-0.1545,-0.1614,-0.1649,-0.1751,-0.1782,-0.1826,-0.1897,-0.1941,-0.2007,-0.2036,-0.2109,-0.2149,-0.2205,-0.2261,-0.2254,-0.2348,-0.235,-0.2376,-0.2374,-0.2392,-0.239,-0.2432,-0.2416,-0.2416,-0.2416,-0.2416,0,-0.1469,-0.1523,-0.1611,-0.1653,-0.1716,-0.1776,-0.1837,-0.1884,-0.1948,-0.2001,-0.2046,-0.2095,-0.2166,-0.2224,-0.2269,-0.2339,-0.2356,-0.2383,-0.2394,-0.2379,-0.2376,-0.2404,-0.2402,-0.2418,-0.2418,-0.2417,-0.2417,0,-0.1466,-0.1527,-0.1606,-0.1696,-0.172,-0.1762,-0.184,-0.1884,-0.1932,-0.1999,-0.2019,-0.2095,-0.2166,-0.2228,-0.2322,-0.2352,-0.2423,-0.2437,-0.2399,-0.2405,-0.2426,-0.2423,-0.2487,-0.2498,-0.2475,-0.2475,-0.2475,0,-0.1484,-0.1527,-0.1622,-0.1661,-0.1704,-0.1766,-0.1811,-0.1873,-0.1918,-0.2004,-0.2037,-0.2112,-0.2175,-0.2287,-0.2351,-0.2423,-0.2439,-0.2456,-0.245,-0.2433,-0.2439,-0.2436,-0.2441,-0.2456,-0.2456,-0.2456,-0.2456,0,-0.1509,-0.1537,-0.16,-0.1673,-0.1726,-0.1787,-0.1849,-0.1878,-0.1952,-0.2001,-0.2074,-0.2123,-0.2219,-0.2293,-0.2373,-0.2419,-0.245,-0.2457,-0.2467,-0.2451,-0.2428,-0.2441,-0.2399,-0.2455,-0.2455,-0.2455,-0.2455,-0.2455,-0.1517,-0.1558,-0.1632,-0.17,-0.1754,-0.1811,-0.1857,-0.1912,-0.1974,-0.2057,-0.209,-0.2165,-0.2238,-0.2349,-0.2395,-0.2455,-0.246,-0.2474,-0.2478,-0.248,-0.2477,-0.2418,-0.247,-0.247,-0.247,-0.247,-0.247,0,-0.1544,-0.1595,-0.1657,-0.1743,-0.1798,-0.1823,-0.1893,-0.1937,-0.2003,-0.2068,-0.2129,-0.2214,-0.2286,-0.2357,-0.2433,-0.2467,-0.2483,-0.2485,-0.2483,-0.2493,-0.2469,-0.2453,-0.2471,-0.2471,-0.2471,-0.2471,-0.2471,-0.2471,-0.1565,-0.1635,-0.1673,-0.1771,-0.1821,-0.1895,-0.1933,-0.1987,-0.204,-0.2132,-0.2193,-0.2238,-0.2306,-0.2387,-0.2455,-0.2474,-0.25,-0.2498,-0.252,-0.2496,-0.2495,-0.2494,-0.2479,-0.2503,-0.2503,-0.254,-0.254,-0.2541]}]]